Weather History for Hyannis, MA

Change the Weather History Date:

Monday, April 8, 2013

  Actual Average Record
Temperature  
Mean Temperature 53 °F -  
Max Temperature 61 °F 49 °F 70 °F (1991)
Min Temperature 46 °F 34 °F 17 °F (1982)
Degree Days  
Heating Degree Days 12    
Growing Degree Days 3 (Base 50)    
Moisture  
Dew Point 42 °F    
Average Humidity 68    
Maximum Humidity 90    
Minimum Humidity 47    
Precipitation  
Precipitation 0.00 in - - ()
Sea Level Pressure  
Sea Level Pressure 30.04 in    
Wind  
Wind Speed 12 mph (SSW)    
Max Wind Speed 20 mph    
Max Gust Speed 25 mph    
Visibility 10 miles    
Events      
Averages and records for this station are not official NWS values.
T = Trace of Precipitation, MM = Missing Value Source: NWS Daily Summary

Daily Weather History Graph

Daily Weather History Graph

Search for Another Location

Airport:

Trip Planner

Search our weather history database for the weather conditions in past years. The results will help you decide how hot, cold, wet, or windy it might be!

Date:

Astronomy

Apr. 08, 2013 Rise Set
Actual Time 6:12 AM EDT 7:14 PM EDT
Civil Twilight 5:43 AM EDT 7:42 PM EDT
Nautical Twilight 5:09 AM EDT 8:16 PM EDT
Astronomical Twilight 4:34 AM EDT 8:52 PM EDT
Moon 5:01 AM EDT (4/8) 5:44 PM EDT (4/8)
Length of Visible Light 13h 59m
Length of Day
13h 02m
Waning Crescent, 3% of the Moon is Illuminated
Apr 8
Waning Crescent
Apr 10
New
Apr 18
First Quarter
Apr 25
Full
May 2
Last Quarter

Hourly Weather History & Observations

Time (EDT) Temp. Windchill Dew Point Humidity Pressure Visibility Wind Dir Wind Speed Gust Speed Precip Events Conditions
12:56 AM 48.0 °F - 44.1 °F 86% 30.05 in 10.0 mi SSW 17.3 mph 24.2 mph N/A   Clear
1:56 AM 48.9 °F - 44.1 °F 83% 30.03 in 10.0 mi SW 16.1 mph 23.0 mph N/A   Clear
2:56 AM 48.9 °F - 45.0 °F 86% 30.01 in 10.0 mi SW 19.6 mph 25.3 mph N/A   Clear
3:56 AM 48.9 °F - 46.0 °F 90% 29.99 in 10.0 mi SW 18.4 mph - N/A   Mostly Cloudy
4:56 AM 48.0 °F - 45.0 °F 89% 29.98 in 10.0 mi SW 17.3 mph - N/A   Partly Cloudy
5:56 AM 48.9 °F - 46.0 °F 90% 29.97 in 10.0 mi SW 15.0 mph - N/A   Scattered Clouds
6:56 AM 50.0 °F - 46.0 °F 86% 29.99 in 10.0 mi WSW 12.7 mph - N/A   Mostly Cloudy
7:56 AM 51.1 °F - 46.0 °F 83% 30.01 in 10.0 mi WSW 8.1 mph - N/A   Scattered Clouds
8:56 AM 55.0 °F - 45.0 °F 69% 30.02 in 10.0 mi West 6.9 mph - N/A   Partly Cloudy
9:56 AM 57.9 °F - 41.0 °F 53% 30.02 in 10.0 mi Variable 4.6 mph - N/A   Clear
10:56 AM 59.0 °F - 41.0 °F 51% 30.03 in 10.0 mi NNE 10.4 mph - N/A   Clear
11:56 AM 59.0 °F - 39.0 °F 48% 30.04 in 10.0 mi NNE 11.5 mph - N/A   Clear
12:56 PM 59.0 °F - 39.9 °F 49% 30.04 in 10.0 mi NNE 8.1 mph - N/A   Clear
1:56 PM 59.0 °F - 39.0 °F 48% 30.05 in 10.0 mi North 11.5 mph - N/A   Clear
2:56 PM 59.0 °F - 39.9 °F 49% 30.05 in 10.0 mi North 10.4 mph - N/A   Clear
3:56 PM 60.1 °F - 39.9 °F 47% 30.05 in 10.0 mi North 6.9 mph - N/A   Clear
4:56 PM 57.0 °F - 39.9 °F 53% 30.05 in 10.0 mi SE 9.2 mph - N/A   Clear
5:56 PM 55.9 °F - 39.0 °F 53% 30.06 in 10.0 mi SE 4.6 mph - N/A   Clear
6:56 PM 53.1 °F - 39.9 °F 61% 30.07 in 10.0 mi ESE 3.5 mph - N/A   Clear
7:56 PM 48.9 °F - 39.0 °F 69% 30.10 in 10.0 mi Calm Calm - N/A   Clear
8:56 PM 46.9 °F - 39.0 °F 74% 30.12 in 10.0 mi SE 4.6 mph - N/A   Clear
9:56 PM 46.0 °F 44.8 °F 39.0 °F 76% 30.11 in 10.0 mi SE 3.5 mph - N/A   Clear
10:56 PM 46.0 °F 44.8 °F 39.0 °F 76% 30.12 in 10.0 mi SE 3.5 mph - N/A   Clear
11:56 PM 46.9 °F - 39.0 °F 74% 30.12 in 10.0 mi South 3.5 mph - N/A   Clear